Location: Watson Lake
(60.1170°N, 128.8000°W)
Time: 03:50:51
(UTC-08:00)

Daily predictions for brighter satellites

Satellite Brightness Start Highest point End
(mag) Time Altitude Azimuth Time Altitude Azimuth Time Altitude Azimuth
ATLAS 3B R/B 4.1 03:19:21 34° ENE 03:19:21 34° ENE 03:23:02 10° ENE
CZ-4C R/B 3.7 03:50:01 40° ENE 03:50:01 40° ENE 03:54:28 10° ENE
Cosmos 2333 Rocket 4.0 03:59:02 27° NE 03:59:02 27° NE 04:01:31 10° NE
NOSS 3-2 (A) 4.3 04:08:25 53° ENE 04:08:25 53° ENE 04:13:50 10° ENE
SL-16 R/B 3.6 04:11:04 34° ENE 04:11:04 34° ENE 04:14:35 10° NE
Cosmos 2360 Rocket 4.0 04:12:59 24° NNE 04:12:59 24° NNE 04:15:26 10° NE
Lacrosse 5 4.5 04:10:49 13° ESE 04:10:49 13° ESE 04:12:46 10° E
Cosmos 1980 Rocket 4.0 04:13:27 24° NNE 04:13:27 24° NNE 04:16:29 10° NE
Cosmos 2322 Rocket 4.0 04:14:06 24° NNE 04:14:06 24° NNE 04:16:54 10° NE
Lacrosse 5 rocket 4.2 04:25:39 16° E 04:25:39 16° E 04:26:32 10° E
COSMOS 2428 4.1 04:31:20 31° NNE 04:31:20 31° NNE 04:34:27 10° NE
Cosmos 2237 Rocket 3.3 04:37:01 38° NE 04:37:01 38° NE 04:40:25 10° NE
CZ-4B R/B 4.0 04:37:38 10° NNE 04:41:37 46° NE 04:41:37 46° NE
SL-16 R/B 3.7 04:44:36 27° NNE 04:44:36 27° NNE 04:48:18 10° NE
CENTAUR R/B 2.8 04:43:33 70° SE 04:43:33 70° SE 04:50:48 10° ENE
Cosmos 1697 Rocket 4.1 04:43:43 29° NNE 04:43:43 29° NNE 04:48:21 10° ENE
ATLAS 5 CENTAUR R/B 2.8 04:48:23 52° NE 04:48:23 52° NE 04:53:11 10° E
Resurs 1-4 Rocket 4.3 04:44:19 10° N 04:45:26 16° N 04:45:26 16° N
COSMOS 2455 3.7 04:50:17 42° NNE 04:50:17 42° NNE 04:55:21 10° ENE
Nadezhda 3 Rocket 4.1 04:49:03 65° NNE 04:49:51 73° ENE 04:56:14 10° SSE
Cosmos 2369 Rocket 4.3 04:55:39 16° SSE 04:55:39 16° SSE 04:56:43 10° SSE
Lacrosse 4 Rocket 4.1 04:56:02 13° SE 04:56:02 13° SE 04:56:33 10° SE
Meteor 2-4 Rocket 4.0 05:02:21 62° SE 05:02:21 62° SE 05:07:10 10° SSE
Meteor 1-23 Rocket 4.4 05:01:39 65° ENE 05:01:44 65° ENE 05:07:16 10° SSE
Cosmos 2219 Rocket 3.1 05:04:33 38° N 05:04:33 38° N 05:08:27 10° NE
USA 238 DEB 3.7 05:04:39 66° NNW 05:05:08 68° N 05:12:11 10° E
USA 238 3.7 05:04:45 66° NNW 05:05:13 68° N 05:12:17 10° E
ATLAS 3B R/B 2.8 05:06:36 63° NNW 05:07:22 67° N 05:14:14 10° E
Cosmos 1603 4.4 05:06:16 42° SSE 05:07:36 51° ESE 05:13:03 10° NE
ADEOS II 2.4 05:02:49 10° NNE 05:07:28 64° NE 05:07:28 64° NE
Cosmos 1607 4.2 05:09:10 55° N 05:09:16 56° N 05:15:25 10° E
Cosmos 1867 3.8 05:09:55 66° NE 05:09:55 66° NE 05:14:59 10° ESE
Cosmos 1980 4.4 05:12:16 45° N 05:12:16 45° N 05:16:34 10° NE
Cosmos 2074 Rocket 3.9 05:15:47 59° S 05:17:07 88° E 05:23:25 10° NNE
Cosmos 1943 Rocket 2.8 05:19:13 44° S 05:19:13 44° S 05:22:58 10° SSE
Cosmos 1680 Rocket 4.0 05:19:09 53° NNE 05:19:09 53° NNE 05:23:09 10° NNE
ADEOS Rocket 3.3 05:12:41 10° NNE 05:17:25 54° NNW 05:17:25 54° NNW
CZ-2D R/B 4.0 05:21:17 10° N 05:23:01 18° N 05:23:01 18° N
Cosmos 1943 4.5 05:22:14 10° S 05:27:25 39° ESE 05:32:39 10° NE
Helios 1B rocket 4.1 05:28:49 10° ESE 05:32:31 32° ENE 05:34:08 24° NNE
Cosmos 1656 Rocket 3.6 05:33:07 75° NW 05:33:38 90° SSW 05:39:21 10° SE
SeaSat 1 3.9 05:30:42 10° NE 05:33:54 26° N 05:33:54 26° N
NOSS 3-2 (C) 3.7 05:34:26 58° WNW 05:35:42 70° N 05:43:06 10° ENE
CZ-4C R/B 2.6 05:35:12 56° NW 05:36:40 76° NNE 05:44:01 10° ESE
Okean O Rocket 3.9 05:32:58 10° N 05:33:46 15° N 05:33:46 15° N
Okean 1 Rocket 3.3 05:37:53 63° ENE 05:37:53 63° ENE 05:41:46 10° NNE
Cosmos 2184 Rocket 3.8 05:37:11 48° SW 05:38:58 74° WNW 05:45:17 10° NNE
Cosmos 2112 Rocket 4.1 05:39:56 61° N 05:39:56 61° N 05:44:30 10° NNE
DNEPR-1 R/B 4.4 05:37:37 46° SSW 05:39:24 70° SE 05:44:42 10° ENE
Cosmos 2333 Rocket 2.8 05:41:03 41° NNW 05:41:03 41° NNW 05:45:58 10° NE
Okean 2 4.3 05:43:45 41° SSE 05:43:45 41° SSE 05:46:31 10° SSE
Meteor 1-20 Rocket 4.1 05:43:13 66° NW 05:43:13 66° NW 05:48:20 10° NNE
Cosmos 1536 3.4 05:44:07 31° SSE 05:45:50 58° E 05:49:50 10° NNE
COSMO-SKYMED 1 4.4 05:41:33 10° S 05:42:58 20° S 05:42:58 20° S
NOAA 6 4.4 05:42:46 10° NNE 05:47:53 63° ESE 05:52:58 10° S
Okean-O 3.0 05:43:52 10° NNE 05:47:21 54° N 05:47:21 54° N
Cosmos 839 Rocket 4.3 05:49:25 48° WSW 05:49:48 49° SW 05:55:44 10° SSE
Lacrosse 5 3.2 05:50:03 24° SSW 05:52:14 35° SSE 05:56:51 10° E
SL-08 ROCKET BODY 4.3 05:52:47 58° W 05:53:11 59° WNW 05:59:00 10° N
SL-16 R/B 2.2 05:52:57 57° NW 05:53:16 58° NW 05:58:54 10° NE
CZ-4 R/B 4.1 05:50:29 10° NE 05:53:23 19° E 05:56:14 10° SE
Cosmos 1892 Rocket 3.5 05:53:34 84° SSW 05:53:34 84° SSW 05:57:56 10° S
Cosmos 2154 Rocket 3.9 05:49:12 10° S 05:55:25 88° E 06:01:40 10° NNE
Cosmos 2360 Rocket 3.4 05:54:45 27° NNW 05:55:25 28° N 06:00:15 10° NE
Cosmos 1300 Rocket 4.3 05:56:57 41° N 05:56:57 41° N 05:59:55 10° NNE
Cosmos 2278 4.2 05:53:38 33° NNW 05:55:56 54° NE 06:01:30 10° ESE
NOSS 0 Rocket 4.3 05:55:46 43° NW 05:56:26 45° NNW 06:02:26 10° NE
Cosmos 1980 Rocket 3.4 05:55:13 26° NNW 05:57:14 34° NNE 06:02:18 10° E
Feng Yun 1-1 Rocket 4.1 05:51:34 10° NNE 05:57:16 85° WNW 06:02:46 10° SSW
Cosmos 2322 Rocket 3.5 05:55:55 25° NNW 05:57:26 29° N 06:02:21 10° ENE
NOSS 3-2 (A) 3.8 05:55:49 45° WNW 05:57:59 68° N 06:05:28 10° E
Meteor 1-28 Rocket 4.3 05:57:25 10° S 05:59:44 35° S 05:59:44 35° S
Lacrosse 5 rocket 1.8 06:01:22 51° S 06:01:22 51° S 06:05:35 10° ESE
Cosmos 44 4.4 05:58:04 13° SSW 06:02:33 44° SE 06:07:20 10° ENE
Cosmos 1626 Rocket 4.2 06:01:00 22° N 06:03:45 56° ENE 06:08:06 10° SSE
Cosmos 405 Rocket 3.9 06:03:24 25° N 06:05:09 39° ENE 06:08:43 10° SE
Cosmos 1066 Rocket 4.5 06:03:01 14° NNW 06:07:36 63° ENE 06:13:01 10° SSE
Cosmos 1610 Rocket 4.4 06:06:23 10° SSW 06:12:35 63° WNW 06:18:54 10° N
COSMOS 2428 3.8 06:13:22 28° NNW 06:14:20 30° N 06:19:21 10° NE
Ariane Rocket 3.5 06:12:16 10° NNE 06:17:19 62° ESE 06:22:20 10° S
SL-8 Rocket 4.2 06:12:15 10° S 06:18:25 70° E 06:24:36 10° NNE
Cosmos 2237 Rocket 2.9 06:18:51 34° NW 06:19:34 35° NNW 06:24:45 10° NE
Meteor 1-31 Rocket 4.4 06:16:19 10° N 06:17:51 22° N 06:17:51 22° N
Cosmos 1331 Rocket 3.8 06:18:48 38° NW 06:20:50 79° WSW 06:25:59 10° SSE
CZ-4B R/B 3.7 06:18:30 10° NNE 06:23:31 37° NW 06:23:31 37° NW
Cosmos 1455 Rocket 3.9 06:21:29 10° S 06:25:41 52° E 06:29:58 10° NNE
CZ-4B R/B 4.2 06:22:10 10° N 06:26:35 54° WNW 06:27:58 38° WSW
Resurs 1-4 Rocket 4.0 06:25:02 10° N 06:26:31 14° NNW 06:26:31 14° NNW
Cosmos 1697 Rocket 3.4 06:25:27 24° NNW 06:28:40 49° NE 06:34:10 10° ESE
SL-16 R/B 3.4 06:26:28 22° NNW 06:29:02 31° NNE 06:34:05 10° ENE
Lacrosse 4 Rocket 3.3 06:32:24 16° SSW 06:32:24 16° SSW 06:33:41 10° SSW
ATLAS 5 CENTAUR R/B 2.2 06:29:56 36° WNW 06:32:23 88° SSW 06:38:34 10° ESE
Cosmos 2366 rocket 4.4 06:26:32 10° S 06:32:48 68° E 06:39:09 10° NNE
Meteor 1-29 3.1 06:29:37 10° SSE 06:33:00 68° ENE 06:34:24 32° N
Cosmos 1656 4.1 06:30:01 24° NNW 06:33:21 58° NE 06:38:59 10° ESE
Meteor 2-13 Rocket 4.4 06:27:52 10° SSW 06:33:58 62° WNW 06:40:05 10° NNE
Cosmos 1975 4.1 06:30:06 10° SSE 06:34:01 44° E 06:37:56 10° NNE
CENTAUR R/B 2.8 06:30:44 31° W 06:34:19 72° NNW 06:42:03 10° ENE
Cosmos 1295 Rocket 4.4 06:29:47 10° SSW 06:36:04 82° WNW 06:42:18 10° NNE
COSMOS 2455 3.3 06:33:26 28° NW 06:36:32 53° NNE 06:42:27 10° E
Radarsat Rocket 4.4 06:33:40 10° NNE 06:40:35 85° WNW 06:48:25 10° SSW
Meteor 2-4 Rocket 4.5 06:44:30 29° W 06:44:30 29° W 06:48:55 10° SW
Cosmos 1441 Rocket 4.3 06:40:47 13° N 06:44:11 44° ENE 06:47:58 10° SE
Cosmos 2218 Rocket 4.1 06:39:11 10° S 06:45:36 85° E 06:52:00 10° NNE
Blok-2BL 4.1 06:45:16 35° WNW 06:47:10 75° NNE 06:51:49 10° ESE
ADEOS II 2.8 06:42:55 10° N 06:47:33 32° NW 06:48:24 30° WNW
Cosmos 2219 Rocket 3.3 06:46:17 24° NW 06:48:07 29° N 06:53:02 10° NE
Meteor 1-11 Rocket 3.8 06:44:34 10° SW 06:50:10 51° WNW 06:55:40 10° NNE
SL-27 R/B 4.4 06:47:43 10° S 06:50:59 33° ESE 06:54:20 10° NE
Cosmos 1603 3.8 06:48:13 22° WSW 06:51:47 55° NW 06:57:21 10° NE
YAOGAN 1 3.9 06:47:44 10° NNE 06:51:54 43° E 06:56:02 10° S
Cosmos 1515 3.9 06:51:00 36° NW 06:52:07 49° W 06:55:49 10° S
Cosmos 2369 3.7 06:49:11 23° NW 06:52:55 89° NE 06:58:36 10° SE
Cosmos 1867 3.8 06:50:35 29° WNW 06:53:06 53° SW 06:58:24 10° SSE
Cosmos 1727 Rocket 4.0 06:50:32 10° NNW 06:56:35 58° W 07:02:38 10° S
USA 238 DEB 3.8 06:52:06 25° WNW 06:56:36 87° NNE 07:03:43 10° ESE
USA 238 3.8 06:52:11 25° WNW 06:56:42 86° NNE 07:03:48 10° ESE
Cosmos 1607 4.0 06:53:17 25° WNW 06:57:07 80° NNE 07:03:24 10° ESE
ATLAS 3B R/B 2.7 06:53:51 24° WNW 06:58:28 81° SSW 07:05:12 10° SE
CSL-04 DEB 4.3 06:55:09 10° NNE 06:59:12 71° WNW 07:03:20 10° SSW
Cosmos 1943 Rocket 3.5 07:00:47 18° WSW 07:00:47 18° WSW 07:04:03 10° SW
Cosmos 1110 Rocket 4.4 06:58:01 26° NW 07:00:29 43° WSW 07:05:23 10° S
Cosmos 1680 Rocket 4.4 06:59:30 26° WNW 07:00:48 29° NNW 07:05:21 10° NNE
Cosmos 1602 Rocket 3.6 06:57:46 17° NNW 07:01:07 57° W 07:05:28 10° S
Cosmos 1174 4.5 07:00:34 26° NNW 07:01:12 28° N 07:04:15 10° ENE
Meteor 1-5 Rocket 4.0 06:57:39 10° SSW 07:02:56 68° WNW 07:08:17 10° NNE
Cosmos 44 Rocket 3.3 06:58:56 16° WSW 07:03:08 80° NNW 07:08:11 10° ENE
ADEOS Rocket 4.1 06:58:51 10° N 07:03:17 23° NW 07:04:23 22° WNW
CZ-2D R/B 4.1 07:02:26 10° N 07:04:21 12° NNW 07:04:21 12° NNW
Cosmos 2084 Rocket 3.2 07:04:18 32° WNW 07:05:54 67° SSW 07:09:45 10° SE
Helios 1B rocket 2.6 07:03:41 10° S 07:07:44 50° WSW 07:10:31 19° NNW
Cosmos 1943 3.1 07:05:38 10° SW 07:11:16 68° NW 07:16:58 10° NE
SeaSat 1 4.0 07:07:36 10° NE 07:11:21 22° N 07:13:41 16° NW
Okean O Rocket 3.7 07:10:31 10° NNW 07:11:14 12° NNW 07:11:14 12° NNW
IDEFIX/ARIANE 42P 3.0 07:07:50 10° NNE 07:13:02 67° ESE 07:18:14 10° S
Meteor 1-21 4.2 07:09:00 10° NNW 07:14:40 83° WSW 07:20:20 10° S
Cosmos 1544 Rocket 3.6 07:10:31 10° SSW 07:14:51 56° WNW 07:19:15 10° N
Okean 1 Rocket 4.0 07:15:10 24° WNW 07:15:48 25° WNW 07:19:24 10° N
Meteor 2-19 Rocket 4.4 07:10:51 10° SSW 07:16:55 66° WNW 07:23:00 10° NNE
Cosmos 158 Rocket 4.3 07:14:06 10° SSW 07:19:28 76° ESE 07:24:54 10° NE
Cosmos 1953 Rocket 3.7 07:15:40 10° NNW 07:20:06 76° ENE 07:24:34 10° SSE
Cosmos 2341 Rocket 4.3 07:14:41 10° SW 07:20:36 42° WNW 07:26:31 10° N
Cosmos 1758 Rocket 3.8 07:16:52 10° NNW 07:21:18 72° ENE 07:25:39 10° SSE
CZ-2C R/B 2.7 07:17:01 10° NNE 07:22:16 79° ESE 07:27:21 10° SSW
Cosmos 1461 4.2 07:18:30 10° SSW 07:22:28 41° SE 07:26:19 10° ENE
Cosmos 1536 3.8 07:20:09 15° WSW 07:22:37 26° WNW 07:26:04 10° N
PAYLOAD A 4.1 07:18:11 10° NNE 07:23:35 81° WNW 07:29:02 10° SSW
Okean-O 3.9 07:21:00 10° N 07:24:18 21° NW 07:24:56 20° WNW
Cosmos 864 Rocket 4.4 07:18:38 10° SSW 07:24:47 70° WNW 07:31:04 10° NNE
CZ-4C R/B 2.9 07:20:23 19° WNW 07:25:21 62° SW 07:32:46 10° SE
Cosmos 2333 Rocket 3.3 07:23:03 18° NW 07:26:12 28° N 07:31:05 10° NE
Cosmos 1842 3.2 07:22:23 10° NNW 07:26:21 89° ENE 07:30:15 10° SSE
DNEPR-1 R/B 4.2 07:21:59 15° W 07:27:03 61° NNW 07:31:59 10° ENE
NOSS 3-2 (C) 3.9 07:21:53 18° WNW 07:27:17 77° NNE 07:34:59 10° ESE
CZ-4 R/B 1.2 07:24:58 10° NNE 07:28:57 75° WNW 07:32:51 10° SSW
Cosmos 1500 3.0 07:25:20 10° SSW 07:29:06 76° WNW 07:32:56 10° NNE
Cosmos 1437 2.7 07:28:47 14° NNW 07:31:33 75° WSW 07:34:49 10° S
Cosmos 1743 3.1 07:29:27 10° S 07:33:21 70° E 07:37:17 10° NNE
Cosmos 1302 Rocket 4.5 07:29:46 16° NW 07:33:40 43° WSW 07:38:38 10° S
Lacrosse 5 2.4 07:29:40 10° WSW 07:34:43 60° S 07:39:44 10° E
Cosmos 1825 Rocket 3.6 07:31:58 10° NNW 07:36:25 66° W 07:40:48 10° S
Cosmos 2084 3.8 07:32:43 10° SW 07:36:29 58° SE 07:40:15 10° ENE
SMAP 3.0 07:32:31 10° NNE 07:37:14 86° WNW 07:41:54 10° SSW
SL-16 R/B 3.1 07:34:51 16° WNW 07:38:29 31° NNW 07:43:29 10° NE
Lacrosse 5 rocket 2.9 07:37:05 13° W 07:40:03 26° SSW 07:43:47 10° SSE
Cosmos 2278 4.0 07:35:34 15° NW 07:40:10 52° WSW 07:45:38 10° SSE
Cosmos 2360 Rocket 3.3 07:36:31 13° NW 07:40:58 34° NNE 07:46:04 10° E
Cosmos 405 Rocket 3.5 07:38:38 15° NW 07:41:10 31° W 07:44:31 10° SSW
Cosmos 1626 Rocket 4.5 07:38:09 13° NW 07:41:21 28° W 07:45:06 10° SSW
Cosmos 1980 Rocket 2.3 07:36:59 13° NW 07:42:04 74° NE 07:47:41 10° SE
Cosmos 2322 Rocket 2.9 07:37:44 12° NW 07:42:46 47° NE 07:48:15 10° ESE
Cosmos 1346 4.2 07:39:58 10° N 07:42:46 40° ENE 07:45:34 10° SE
Cosmos 44 3.3 07:38:29 10° WSW 07:43:43 73° NNW 07:48:40 10° ENE
Cosmos 374 Rocket 4.2 07:42:57 16° WNW 07:46:01 79° NNE 07:49:47 10° ESE
Resurs 01 Rocket 4.2 07:43:57 10° NE 07:47:32 23° E 07:51:06 10° SE
USA 229 DEB 3.9 07:41:32 10° SW 07:48:29 83° SSE 07:55:34 10° ENE
USA 229 3.9 07:41:38 10° SW 07:48:35 83° SSE 07:55:40 10° ENE
Cosmos 1809 Rocket 4.4 07:42:48 10° SSW 07:49:01 76° WNW 07:55:15 10° NNE
NOSS 3-2 (A) 3.9 07:43:12 14° WNW 07:49:24 88° NNE 07:57:12 10° ESE
MONITOR-E 4.2 07:46:45 10° NNE 07:49:59 85° WNW 07:53:12 10° SSW
CSL-04 Rocket 4.0 07:45:38 10° NNE 07:50:57 46° WNW 07:56:11 10° SW
Cosmos 1269 Rocket 4.1 07:49:18 10° SW 07:54:30 55° NW 07:59:46 10° NNE
Cosmos 1992 Rocket 4.0 07:49:42 11° NW 07:54:49 69° WSW 07:59:59 10° SSE
SJ-12 4.1 07:52:01 10° N 07:56:04 50° WNW 08:00:07 10° SW
Ariane Rocket 3.5 07:51:32 10° N 07:56:07 35° NW 08:00:40 10° WSW
AQUARIUS 4.2 07:52:21 10° NNE 07:56:49 61° WNW 08:01:15 10° SW
IRS-1A Rocket 4.4 07:52:48 10° NNE 07:58:22 56° WNW 08:04:00 10° SW
Meteor 1-12 Rocket 4.3 07:53:08 10° SW 07:58:41 56° WNW 08:04:20 10° NNE
COSMOS 2428 3.8 07:55:23 11° NW 08:00:11 32° NNE 08:05:17 10° ENE
USA 215 4.2 07:54:39 10° E 08:01:01 51° SSE 08:07:21 10° SW
CSL-04 Debris 4.5 07:56:54 10° NNE 08:02:04 44° WNW 08:07:14 10° SW
Cosmos 1455 Rocket 3.8 07:59:55 10° SW 08:03:48 31° WNW 08:07:43 10° N
Cosmos 2237 Rocket 3.3 08:00:41 11° NW 08:05:08 28° N 08:09:57 10° ENE
COSMOS 2487 3.7 08:02:50 10° S 08:06:19 48° ESE 08:09:49 10° NE
Cosmos 2285 Rocket 4.4 08:03:20 10° NNW 08:09:38 64° NE 08:15:57 10° SE
Nimbus 7 Rocket 4.4 08:04:21 10° SSE 08:10:14 82° WSW 08:16:10 10° NNW
Cosmos 1975 3.6 08:06:57 10° SW 08:10:41 33° WNW 08:14:26 10° N
Cosmos 2251 Rocket 3.6 08:05:50 10° SSW 08:11:15 89° NW 08:16:41 10° NNE
CORIOLIS 4.1 08:06:58 10° NNE 08:12:18 66° WNW 08:17:36 10° SW
ALOS 4.1 08:08:36 10° NNE 08:12:53 33° E 08:17:07 10° SSE
Cosmos 1697 Rocket 2.9 08:07:18 10° NW 08:12:53 61° WSW 08:18:26 10° SSE
SL-16 R/B 2.6 08:08:33 10° NW 08:14:13 60° NE 08:19:50 10° ESE
Cosmos 1048 Rocket 4.3 08:09:15 10° WSW 08:14:15 47° NW 08:19:22 10° NNE
Cosmos 1934 Rocket 4.0 08:09:14 10° S 08:15:19 89° WNW 08:21:29 10° NNE
ATLAS 5 CENTAUR R/B 3.2 08:11:33 10° WNW 08:16:50 38° SW 08:22:32 10° SSE
Cosmos 1656 4.1 08:11:37 10° NW 08:17:01 48° WSW 08:22:27 10° S
SPOT 3 Rocket 3.7 08:14:38 10° NNE 08:19:40 55° WNW 08:24:41 10° SW
Cosmos 2123 Rocket 4.2 08:14:01 10° NNW 08:20:05 53° W 08:26:05 10° SSW
Cosmos 1441 Rocket 4.2 08:16:34 10° NNW 08:20:06 30° W 08:23:33 10° SSW
COSMOS 2455 3.0 08:16:48 10° NW 08:22:52 77° SW 08:28:55 10° SE
CENTAUR R/B 3.0 08:18:35 10° WNW 08:25:43 74° NNE 08:33:43 10° E
Fregat R/B Cluster 11 4.0 08:22:02 10° WSW 08:25:49 74° NNW 08:30:08 10° ENE
ADEOS II 3.8 08:23:51 10° N 08:25:54 12° NNW 08:27:59 10° NW
SL-27 R/B 2.9 08:22:43 10° WSW 08:26:13 42° NW 08:29:46 10° NNE
YAOGAN 1 3.0 08:23:58 10° N 08:28:01 39° WNW 08:32:03 10° SW
SJ-6B 3.2 08:24:29 10° NNE 08:28:22 71° ESE 08:32:20 10° S
Cosmos 1726 Rocket 3.5 08:27:05 10° SSW 08:31:28 81° WNW 08:35:56 10° NNE
Cosmos 2219 Rocket 3.3 08:28:37 10° NW 08:33:39 31° NNE 08:38:39 10° ENE
Cosmos 1484 Rocket 3.0 08:30:47 10° N 08:34:25 46° WNW 08:38:06 10° SW
Cosmos 2208 Rocket 4.5 08:30:17 10° NNW 08:35:27 58° NE 08:40:38 10° SE
Meteor 1-24 Rocket 4.0 08:29:40 10° NNW 08:35:29 77° ENE 08:41:28 10° SSE
Meteor 2-5 Rocket 3.9 08:29:46 10° NNW 08:35:42 77° WSW 08:41:38 10° S
Okean 3 Rocket 4.1 08:31:53 10° N 08:36:15 59° ENE 08:40:37 10° SSE
Cosmos 2082 Rocket 3.8 08:31:50 10° S 08:37:01 40° ESE 08:42:14 10° NE
COSMOS 2406 3.2 08:31:29 10° SW 08:37:08 66° NW 08:42:51 10° NE
